Weather History for Topeka, KS

Change the Weather History Date:

Saturday, March 1, 2014

  Actual Average Record
Temperature  
Mean Temperature 19 °F 39 °F  
Max Temperature 31 °F 50 °F 82 °F (1992)
Min Temperature 7 °F 28 °F -1 °F (1962)
Degree Days  
Heating Degree Days 46 26  
Month to date heating degree days 46 26  
Since 1 July heating degree days 4368 3993  
Cooling Degree Days 0 0  
Month to date cooling degree days 0 0  
Year to date cooling degree days 0 0  
Moisture  
Dew Point 9 °F    
Average Humidity 70    
Maximum Humidity 83    
Minimum Humidity 56    
Precipitation  
Precipitation 0.11 in 0.06 in 1.14 in (1953)
Month to date precipitation 0.11 0.06  
Year to date precipitation 1.77 2.24  
Snow  
Snow 0.90 in 0.10 in 5.40 in (1953)
Month to date snowfall 0.9 0.1  
Year to date snowfall 19.8 9.5  
Since 1 July snowfall 24.1 16.0  
Snow Depth 0.00 in    
Sea Level Pressure  
Sea Level Pressure 30.31 in    
Wind  
Wind Speed 16 mph (NNE)    
Max Wind Speed 24 mph    
Max Gust Speed 30 mph    
Visibility 5 miles    
Events Snow    
T = Trace of Precipitation, MM = Missing Value Source: NWS Daily Summary

Daily Weather History Graph

Daily Weather History Graph

Search for Another Location

Airport:

Trip Planner

Search our weather history database for the weather conditions in past years. The results will help you decide how hot, cold, wet, or windy it might be!

Date:

Astronomy

Mar. 01, 2014 Rise Set
Actual Time 6:55 AM CST 6:15 PM CST
Civil Twilight 6:28 AM CST 6:42 PM CST
Nautical Twilight 5:57 AM CST 7:12 PM CST
Astronomical Twilight 5:26 AM CST 7:43 PM CST
Moon 6:49 AM CST (3/1) 7:02 PM CST (3/1)
Length of Visible Light 12h 13m
Length of Day
11h 20m
New Moon, 0% of the Moon is Illuminated
Mar 1
New Moon
Mar 8
First Quarter
Mar 16
Full
Mar 23
Last Quarter
Mar 30
New

Hourly Weather History & Observations

Time (CST) Temp. Windchill Dew Point Humidity Pressure Visibility Wind Dir Wind Speed Gust Speed Precip Events Conditions
12:53 AM 30.0 °F 20.0 °F 21.9 °F 72% 30.11 in 9.0 mi North 12.7 mph - N/A   Overcast
1:53 AM 28.0 °F 16.5 °F 19.9 °F 72% 30.11 in 10.0 mi North 15.0 mph 24.2 mph N/A   Overcast
2:53 AM 27.0 °F 14.7 °F 19.0 °F 72% 30.13 in 10.0 mi NNE 16.1 mph - N/A   Overcast
3:53 AM 26.1 °F 16.2 °F 19.0 °F 75% 30.16 in 8.0 mi North 10.4 mph - N/A   Overcast
4:53 AM 25.0 °F 13.1 °F 18.0 °F 75% 30.17 in 9.0 mi North 13.8 mph - N/A   Overcast
5:53 AM 24.1 °F 11.5 °F 18.0 °F 77% 30.23 in 7.0 mi North 15.0 mph - N/A   Overcast
6:53 AM 24.1 °F 11.5 °F 18.0 °F 77% 30.21 in 6.0 mi NNE 15.0 mph - N/A   Haze
7:22 AM 24.1 °F 13.1 °F 18.0 °F 77% 30.21 in 6.0 mi North 11.5 mph - N/A   Haze
7:49 AM 24.8 °F 12.9 °F 17.6 °F 74% 30.21 in 6.0 mi NNE 13.8 mph - N/A   Haze
7:53 AM 24.1 °F 13.7 °F 18.0 °F 77% 30.22 in 6.0 mi NNE 10.4 mph - N/A   Haze
8:53 AM 25.0 °F 14.8 °F 18.0 °F 75% 30.26 in 6.0 mi North 10.4 mph - N/A   Haze
9:19 AM 24.1 °F 10.6 °F 14.0 °F 65% 30.26 in 9.0 mi NNE 17.3 mph - N/A   Overcast
9:53 AM 21.9 °F 7.8 °F 12.9 °F 68% 30.29 in 10.0 mi North 17.3 mph - N/A   Overcast
10:53 AM 21.9 °F 9.2 °F 10.0 °F 60% 30.31 in 10.0 mi North 13.8 mph 23.0 mph N/A   Overcast
11:53 AM 19.9 °F 5.2 °F 7.0 °F 57% 30.31 in 10.0 mi NNE 17.3 mph 24.2 mph N/A   Overcast
12:53 PM 19.9 °F 5.2 °F 8.1 °F 60% 30.31 in 10.0 mi NNE 17.3 mph - N/A   Overcast
1:53 PM 19.0 °F 5.0 °F 8.1 °F 62% 30.29 in 9.0 mi NNE 15.0 mph 26.5 mph N/A   Overcast
2:53 PM 18.0 °F 2.2 °F 9.0 °F 68% 30.29 in 7.0 mi NNE 18.4 mph - N/A   Overcast
3:53 PM 18.0 °F 3.1 °F 8.1 °F 65% 30.29 in 7.0 mi NNE 16.1 mph 24.2 mph N/A   Overcast
4:53 PM 17.1 °F 2.0 °F 8.1 °F 68% 30.31 in 6.0 mi NNE 16.1 mph - 0.00 in   Haze
5:21 PM 16.0 °F -0.9 °F 8.1 °F 71% 30.26 in 2.0 mi NNE 19.6 mph - 0.00 in Snow Light Snow
5:33 PM 15.1 °F -1.6 °F 7.0 °F 70% 30.27 in 4.0 mi NNE 18.4 mph - 0.00 in   Haze
5:53 PM 15.1 °F -2.5 °F 7.0 °F 70% 30.32 in 3.0 mi NNE 20.7 mph 26.5 mph 0.00 in Snow Light Snow
6:41 PM 14.0 °F -0.8 °F 7.0 °F 74% 30.30 in 2.0 mi North 13.8 mph 25.3 mph 0.00 in Snow Light Snow
6:53 PM 12.9 °F -2.8 °F 7.0 °F 77% 30.35 in 2.0 mi North 15.0 mph 24.2 mph 0.00 in Snow Light Snow
7:13 PM 12.9 °F -4.4 °F 7.0 °F 77% 30.31 in 1.8 mi NNE 18.4 mph 27.6 mph 0.00 in Snow Light Snow
7:21 PM 12.9 °F -0.9 °F 8.1 °F 81% 30.32 in 2.0 mi North 11.5 mph 26.5 mph 0.00 in Snow Light Snow
7:28 PM 12.9 °F -3.4 °F 7.0 °F 77% 30.31 in 1.5 mi NNE 16.1 mph 25.3 mph 0.00 in Snow Light Snow
7:51 PM 12.2 °F -4.3 °F 6.8 °F 79% 30.34 in 2.0 mi North 16.1 mph - 0.00 in Snow Light Snow
7:53 PM 12.0 °F -4.5 °F 7.0 °F 80% 30.38 in 2.0 mi North 16.1 mph - 0.00 in Snow Light Snow
8:17 PM 12.0 °F -5.1 °F 7.0 °F 80% 30.36 in 1.2 mi North 17.3 mph 24.2 mph 0.00 in Snow Light Snow
8:53 PM 10.9 °F -9.2 °F 6.1 °F 81% 30.38 in 1.5 mi North 24.2 mph 29.9 mph 0.00 in Snow Light Snow
9:05 PM 10.9 °F -7.0 °F 5.0 °F 77% 30.37 in 1.2 mi North 18.4 mph 28.8 mph 0.01 in Snow Light Snow
9:12 PM 10.9 °F -7.5 °F 5.0 °F 77% 30.38 in 1.5 mi NNE 19.6 mph - 0.01 in Snow Light Snow
9:23 PM 10.9 °F -3.4 °F 6.1 °F 81% 30.37 in 1.0 mi North 11.5 mph - 0.02 in Snow Light Snow
9:50 PM 10.4 °F -6.6 °F 3.2 °F 73% 30.38 in 2.5 mi North 16.1 mph - 0.02 in Snow Light Snow
9:53 PM 10.0 °F -6.5 °F 3.9 °F 76% 30.43 in 2.0 mi North 15.0 mph - 0.02 in Snow Light Snow
10:03 PM 10.0 °F -7.1 °F 5.0 °F 80% 30.40 in 1.2 mi North 16.1 mph - 0.01 in Snow Light Snow
10:19 PM 9.0 °F -10.0 °F 3.0 °F 77% 30.40 in 2.0 mi North 19.6 mph 25.3 mph 0.03 in Snow Light Snow
10:31 PM 9.0 °F -10.5 °F 3.0 °F 77% 30.40 in 0.8 mi North 20.7 mph 27.6 mph 0.03 in Snow Light Snow
10:40 PM 9.0 °F -9.5 °F 3.9 °F 80% 30.41 in 0.5 mi North 18.4 mph 25.3 mph 0.05 in Snow Snow
10:53 PM 8.1 °F -11.2 °F 1.9 °F 76% 30.43 in 0.8 mi NNE 19.6 mph 27.6 mph 0.07 in Snow Light Snow
11:03 PM 8.1 °F -11.7 °F 1.9 °F 76% 30.40 in 1.2 mi North 20.7 mph 27.6 mph 0.00 in Snow Light Snow
11:08 PM 8.1 °F -11.2 °F 1.0 °F 73% 30.42 in 2.0 mi North 19.6 mph 27.6 mph 0.00 in Snow Light Snow
11:18 PM 8.1 °F -9.6 °F 1.0 °F 73% 30.43 in 4.0 mi North 16.1 mph 24.2 mph 0.01 in Snow Light Snow
11:53 PM 7.0 °F -9.8 °F 1.0 °F 77% 30.47 in 4.0 mi North 13.8 mph 20.7 mph 0.02 in   Overcast